Time,TemperatureF,DewpointF,PressureIn,WindDirection,WindDirectionDegrees,WindSpeedMPH,WindSpeedGustMPH,Humidity,HourlyPrecipIn,Conditions,Clouds,dailyrainin,SoftwareType,DateUTC
2013-03-03 00:00:00,31.3,29.0,-100.00,NW,324,0.0,0.0,91,0.00,,,-99.99,HOBO +U30 +Weather +,2013-03-03 05:00:00,
2013-03-03 00:15:00,31.2,28.9,-100.00,NW,316,0.0,0.0,91,0.00,,,-99.99,HOBO +U30 +Weather +,2013-03-03 05:15:00,
2013-03-03 00:30:00,31.1,28.6,-100.00,NW,317,0.0,0.0,90,0.00,,,-99.99,HOBO +U30 +Weather +,2013-03-03 05:30:00,
2013-03-03 00:45:00,30.9,28.5,-100.00,NW,320,0.0,0.0,90,0.00,,,-99.99,HOBO +U30 +Weather +,2013-03-03 05:45:00,
2013-03-03 01:00:00,30.8,28.3,-100.00,NW,323,0.0,0.0,90,0.00,,,-99.99,HOBO +U30 +Weather +,2013-03-03 06:00:00,
2013-03-03 01:15:00,30.7,28.3,-100.00,NW,321,0.0,0.0,90,0.00,,,-99.99,HOBO +U30 +Weather +,2013-03-03 06:15:00,
2013-03-03 01:30:00,30.4,28.1,-100.00,NW,314,0.0,0.0,90,0.00,,,-99.99,HOBO +U30 +Weather +,2013-03-03 06:30:00,
2013-03-03 01:45:00,30.3,27.9,-100.00,NW,316,0.0,0.0,90,0.00,,,-99.99,HOBO +U30 +Weather +,2013-03-03 06:45:00,
2013-03-03 02:00:00,30.1,27.7,-100.00,NW,320,0.0,0.0,90,0.00,,,-99.99,HOBO +U30 +Weather +,2013-03-03 07:00:00,
2013-03-03 02:15:00,30.0,27.6,-100.00,NW,320,0.0,0.0,90,0.00,,,-99.99,HOBO +U30 +Weather +,2013-03-03 07:15:00,
2013-03-03 02:30:00,29.9,27.6,-100.00,NNW,329,0.0,0.0,91,0.00,,,-99.99,HOBO +U30 +Weather +,2013-03-03 07:30:00,
2013-03-03 02:45:00,29.8,27.6,-100.00,NW,319,0.0,0.0,91,0.00,,,-99.99,HOBO +U30 +Weather +,2013-03-03 07:45:00,
2013-03-03 03:00:00,29.7,27.5,-100.00,NW,314,0.0,0.0,91,0.00,,,-99.99,HOBO +U30 +Weather +,2013-03-03 08:00:00,
2013-03-03 03:15:00,29.6,27.4,-100.00,NW,319,0.0,0.0,91,0.00,,,-99.99,HOBO +U30 +Weather +,2013-03-03 08:15:00,
2013-03-03 03:30:00,29.6,27.3,-100.00,NW,316,0.0,0.0,91,0.00,,,-99.99,HOBO +U30 +Weather +,2013-03-03 08:30:00,
2013-03-03 03:45:00,29.5,27.2,-100.00,NW,320,0.0,0.0,91,0.00,,,-99.99,HOBO +U30 +Weather +,2013-03-03 08:45:00,
2013-03-03 04:00:00,29.4,27.1,-100.00,NW,321,0.0,0.0,91,0.00,,,-99.99,HOBO +U30 +Weather +,2013-03-03 09:00:00,
2013-03-03 04:15:00,29.2,26.9,-100.00,NNW,330,1.6,7.4,91,0.00,,,-99.99,HOBO +U30 +Weather +,2013-03-03 09:15:00,
2013-03-03 04:30:00,29.2,26.9,-100.00,NW,319,3.4,5.4,91,0.00,,,-99.99,HOBO +U30 +Weather +,2013-03-03 09:30:00,
2013-03-03 04:45:00,29.2,26.8,-100.00,NW,316,3.8,7.8,90,0.00,,,-99.99,HOBO +U30 +Weather +,2013-03-03 09:45:00,
2013-03-03 05:00:00,29.0,26.8,-100.00,NW,319,2.5,7.2,91,0.00,,,-99.99,HOBO +U30 +Weather +,2013-03-03 10:00:00,
2013-03-03 05:15:00,29.0,26.7,-100.00,NW,309,2.9,7.2,91,0.00,,,-99.99,HOBO +U30 +Weather +,2013-03-03 10:15:00,
2013-03-03 05:30:00,28.9,26.7,-100.00,NW,314,3.4,7.8,91,0.00,,,-99.99,HOBO +U30 +Weather +,2013-03-03 10:30:00,
2013-03-03 05:45:00,28.8,26.5,-100.00,NW,320,2.9,6.3,90,0.00,,,-99.99,HOBO +U30 +Weather +,2013-03-03 10:45:00,
2013-03-03 06:00:00,28.8,26.5,-100.00,NW,316,2.5,6.3,91,0.00,,,-99.99,HOBO +U30 +Weather +,2013-03-03 11:00:00,
2013-03-03 06:15:00,28.8,26.5,-100.00,NNW,329,2.5,7.2,91,0.00,,,-99.99,HOBO +U30 +Weather +,2013-03-03 11:15:00,
2013-03-03 06:30:00,28.8,26.5,-100.00,NW,324,2.9,7.4,90,0.00,,,-99.99,HOBO +U30 +Weather +,2013-03-03 11:30:00,
2013-03-03 06:45:00,28.9,26.6,-100.00,NW,319,2.9,6.3,90,0.00,,,-99.99,HOBO +U30 +Weather +,2013-03-03 11:45:00,
2013-03-03 07:00:00,29.2,26.6,-100.00,NW,324,2.9,6.3,90,0.00,,,-99.99,HOBO +U30 +Weather +,2013-03-03 12:00:00,
2013-03-03 07:15:00,29.5,26.9,-100.00,NW,316,2.9,7.2,90,0.00,,,-99.99,HOBO +U30 +Weather +,2013-03-03 12:15:00,
2013-03-03 07:30:00,29.8,27.1,-100.00,NNW,329,1.6,5.8,89,0.00,,,-99.99,HOBO +U30 +Weather +,2013-03-03 12:30:00,
2013-03-03 07:45:00,30.0,27.2,-100.00,NNW,336,2.0,7.2,89,0.00,,,-99.99,HOBO +U30 +Weather +,2013-03-03 12:45:00,
2013-03-03 08:00:00,30.5,27.7,-100.00,NW,317,2.9,5.8,89,0.00,,,-99.99,HOBO +U30 +Weather +,2013-03-03 13:00:00,
2013-03-03 08:15:00,30.8,27.7,-100.00,NW,320,2.0,4.9,88,0.00,,,-99.99,HOBO +U30 +Weather +,2013-03-03 13:15:00,
2013-03-03 08:30:00,31.3,28.4,-100.00,NW,321,2.5,7.8,89,0.00,,,-99.99,HOBO +U30 +Weather +,2013-03-03 13:30:00,
2013-03-03 08:45:00,32.0,28.9,-100.00,NNW,330,2.0,6.3,88,0.00,,,-99.99,HOBO +U30 +Weather +,2013-03-03 13:45:00,
2013-03-03 09:00:00,32.2,29.2,-100.00,NNW,330,2.0,4.9,88,0.00,,,-99.99,HOBO +U30 +Weather +,2013-03-03 14:00:00,
2013-03-03 09:15:00,32.7,29.6,-100.00,NW,314,2.5,5.4,88,0.00,,,-99.99,HOBO +U30 +Weather +,2013-03-03 14:15:00,
2013-03-03 09:30:00,32.7,29.6,-100.00,NW,305,3.8,6.7,88,0.00,,,-99.99,HOBO +U30 +Weather +,2013-03-03 14:30:00,
2013-03-03 09:45:00,33.3,30.3,-100.00,NW,305,1.3,5.8,88,0.00,,,-99.99,HOBO +U30 +Weather +,2013-03-03 14:45:00,
2013-03-03 10:00:00,35.1,31.2,-100.00,WNW,292,2.9,6.7,85,0.00,,,-99.99,HOBO +U30 +Weather +,2013-03-03 15:00:00,
2013-03-03 10:15:00,35.2,31.8,-100.00,WNW,291,3.4,7.2,87,0.00,,,-99.99,HOBO +U30 +Weather +,2013-03-03 15:15:00,
2013-03-03 10:30:00,36.6,32.7,-100.00,WNW,296,1.6,6.7,85,0.00,,,-99.99,HOBO +U30 +Weather +,2013-03-03 15:30:00,
2013-03-03 10:45:00,35.5,31.9,-100.00,NW,324,0.0,0.0,86,0.00,,,-99.99,HOBO +U30 +Weather +,2013-03-03 15:45:00,
2013-03-03 11:00:00,36.4,32.8,-100.00,WNW,302,0.0,0.4,86,0.00,,,-99.99,HOBO +U30 +Weather +,2013-03-03 16:00:00,
2013-03-03 11:15:00,37.1,33.6,-100.00,NW,314,0.0,0.0,86,0.00,,,-99.99,HOBO +U30 +Weather +,2013-03-03 16:15:00,
2013-03-03 11:30:00,39.5,35.4,-100.00,NNW,344,0.4,3.8,85,0.00,,,-99.99,HOBO +U30 +Weather +,2013-03-03 16:30:00,
2013-03-03 11:45:00,40.3,35.7,-100.00,NW,310,2.0,5.8,83,0.00,,,-99.99,HOBO +U30 +Weather +,2013-03-03 16:45:00,
2013-03-03 12:00:00,40.7,35.9,-100.00,NW,319,1.3,5.4,82,0.00,,,-99.99,HOBO +U30 +Weather +,2013-03-03 17:00:00,
2013-03-03 12:15:00,39.5,35.2,-100.00,NW,324,3.4,8.3,84,0.00,,,-99.99,HOBO +U30 +Weather +,2013-03-03 17:15:00,
2013-03-03 12:30:00,39.5,34.5,-100.00,WNW,302,3.8,8.7,82,0.00,,,-99.99,HOBO +U30 +Weather +,2013-03-03 17:30:00,
2013-03-03 12:45:00,38.9,34.8,-100.00,NW,310,4.3,8.3,85,0.00,,,-99.99,HOBO +U30 +Weather +,2013-03-03 17:45:00,
2013-03-03 13:00:00,37.8,33.8,-100.00,WNW,299,4.5,8.7,85,0.00,,,-99.99,HOBO +U30 +Weather +,2013-03-03 18:00:00,
2013-03-03 13:15:00,37.6,34.0,-100.00,WNW,302,4.3,8.3,86,0.00,,,-99.99,HOBO +U30 +Weather +,2013-03-03 18:15:00,
2013-03-03 13:30:00,38.0,34.2,-100.00,NW,326,2.5,6.7,86,0.00,,,-99.99,HOBO +U30 +Weather +,2013-03-03 18:30:00,
2013-03-03 13:45:00,37.9,34.2,-100.00,NW,320,3.4,7.4,86,0.00,,,-99.99,HOBO +U30 +Weather +,2013-03-03 18:45:00,
2013-03-03 14:00:00,37.7,34.3,-100.00,NW,314,4.5,9.2,87,0.00,,,-99.99,HOBO +U30 +Weather +,2013-03-03 19:00:00,
2013-03-03 14:15:00,36.0,33.0,-100.00,WNW,303,4.5,7.8,88,0.00,,,-99.99,HOBO +U30 +Weather +,2013-03-03 19:15:00,
2013-03-03 14:30:00,37.9,34.7,-100.00,NW,316,3.4,7.4,88,0.00,,,-99.99,HOBO +U30 +Weather +,2013-03-03 19:30:00,
2013-03-03 14:45:00,38.9,35.2,-100.00,NW,307,0.0,0.0,86,0.00,,,-99.99,HOBO +U30 +Weather +,2013-03-03 19:45:00,
2013-03-03 15:00:00,36.9,33.5,-100.00,NW,306,1.3,9.6,87,0.00,,,-99.99,HOBO +U30 +Weather +,2013-03-03 20:00:00,
2013-03-03 15:15:00,36.9,33.7,-100.00,WNW,299,4.9,9.2,88,0.00,,,-99.99,HOBO +U30 +Weather +,2013-03-03 20:15:00,
2013-03-03 15:30:00,35.3,32.7,-100.00,NW,314,4.3,9.6,90,0.00,,,-99.99,HOBO +U30 +Weather +,2013-03-03 20:30:00,
2013-03-03 15:45:00,33.8,31.5,-100.00,NW,314,5.4,9.2,91,0.00,,,-99.99,HOBO +U30 +Weather +,2013-03-03 20:45:00,
2013-03-03 16:00:00,34.1,32.0,-100.00,NW,312,4.5,9.2,91,0.00,,,-99.99,HOBO +U30 +Weather +,2013-03-03 21:00:00,
2013-03-03 16:15:00,33.8,31.7,-100.00,NW,309,4.5,8.3,91,0.00,,,-99.99,HOBO +U30 +Weather +,2013-03-03 21:15:00,
2013-03-03 16:30:00,32.6,30.8,-100.00,NW,314,4.9,10.3,93,0.00,,,-99.99,HOBO +U30 +Weather +,2013-03-03 21:30:00,
2013-03-03 16:45:00,32.6,30.8,-100.00,NW,312,4.3,7.4,93,0.00,,,-99.99,HOBO +U30 +Weather +,2013-03-03 21:45:00,
2013-03-03 17:00:00,32.7,30.8,-100.00,NW,312,3.8,7.2,92,0.00,,,-99.99,HOBO +U30 +Weather +,2013-03-03 22:00:00,
2013-03-03 17:15:00,32.8,30.7,-100.00,NW,319,4.3,10.1,92,0.00,,,-99.99,HOBO +U30 +Weather +,2013-03-03 22:15:00,
2013-03-03 17:30:00,32.3,30.4,-100.00,NW,324,3.8,8.7,92,0.00,,,-99.99,HOBO +U30 +Weather +,2013-03-03 22:30:00,
2013-03-03 17:45:00,32.2,30.3,-100.00,NW,321,3.4,8.7,92,0.00,,,-99.99,HOBO +U30 +Weather +,2013-03-03 22:45:00,
2013-03-03 18:00:00,31.9,30.1,-100.00,NW,326,4.3,9.2,92,0.00,,,-99.99,HOBO +U30 +Weather +,2013-03-03 23:00:00,
2013-03-03 18:15:00,31.5,29.8,-100.00,NW,324,2.9,7.4,93,0.00,,,-99.99,HOBO +U30 +Weather +,2013-03-03 23:15:00,
2013-03-03 18:30:00,31.3,29.5,-100.00,NW,326,3.4,7.2,93,0.00,,,-99.99,HOBO +U30 +Weather +,2013-03-03 23:30:00,
2013-03-03 18:45:00,31.0,29.2,-100.00,NW,324,3.8,9.6,92,0.00,,,-99.99,HOBO +U30 +Weather +,2013-03-03 23:45:00,
2013-03-03 19:00:00,30.8,29.0,-100.00,NW,317,4.3,9.2,92,0.00,,,-99.99,HOBO +U30 +Weather +,2013-03-04 00:00:00,
2013-03-03 19:15:00,30.7,28.8,-100.00,NW,316,4.3,8.3,92,0.00,,,-99.99,HOBO +U30 +Weather +,2013-03-04 00:15:00,
2013-03-03 19:30:00,30.4,28.5,-100.00,NW,316,4.3,9.2,92,0.00,,,-99.99,HOBO +U30 +Weather +,2013-03-04 00:30:00,
2013-03-03 19:45:00,30.3,28.3,-100.00,NW,317,3.8,7.8,92,0.00,,,-99.99,HOBO +U30 +Weather +,2013-03-04 00:45:00,
2013-03-03 20:00:00,30.3,28.3,-100.00,NW,316,4.3,7.4,92,0.00,,,-99.99,HOBO +U30 +Weather +,2013-03-04 01:00:00,
2013-03-03 20:15:00,30.1,28.1,-100.00,NW,316,3.8,8.7,92,0.00,,,-99.99,HOBO +U30 +Weather +,2013-03-04 01:15:00,
2013-03-03 20:30:00,30.0,28.0,-100.00,NW,317,4.3,8.3,92,0.00,,,-99.99,HOBO +U30 +Weather +,2013-03-04 01:30:00,
2013-03-03 20:45:00,30.1,28.0,-100.00,NW,316,4.3,8.3,92,0.00,,,-99.99,HOBO +U30 +Weather +,2013-03-04 01:45:00,
2013-03-03 21:00:00,30.4,28.3,-100.00,NW,319,3.8,8.3,91,0.00,,,-99.99,HOBO +U30 +Weather +,2013-03-04 02:00:00,
2013-03-03 21:15:00,30.4,28.3,-100.00,NW,324,3.4,6.7,91,0.00,,,-99.99,HOBO +U30 +Weather +,2013-03-04 02:15:00,
2013-03-03 21:30:00,30.7,28.5,-100.00,NW,321,3.8,9.6,91,0.00,,,-99.99,HOBO +U30 +Weather +,2013-03-04 02:30:00,
2013-03-03 21:45:00,30.7,28.4,-100.00,NW,321,3.8,13.0,91,0.00,,,-99.99,HOBO +U30 +Weather +,2013-03-04 02:45:00,
2013-03-03 22:00:00,30.3,28.1,-100.00,NW,324,3.8,7.8,91,0.00,,,-99.99,HOBO +U30 +Weather +,2013-03-04 03:00:00,
2013-03-03 22:15:00,30.4,28.1,-100.00,NW,324,4.3,10.1,91,0.00,,,-99.99,HOBO +U30 +Weather +,2013-03-04 03:15:00,
2013-03-03 22:30:00,30.5,28.1,-100.00,NW,323,4.5,13.0,90,0.00,,,-99.99,HOBO +U30 +Weather +,2013-03-04 03:30:00,
2013-03-03 22:45:00,30.3,28.0,-100.00,NW,326,4.3,12.1,91,0.00,,,-99.99,HOBO +U30 +Weather +,2013-03-04 03:45:00,
2013-03-03 23:00:00,30.2,27.9,-100.00,NW,326,4.5,9.6,91,0.00,,,-99.99,HOBO +U30 +Weather +,2013-03-04 04:00:00,
2013-03-03 23:15:00,30.1,27.8,-100.00,NNW,327,4.5,10.7,91,0.00,,,-99.99,HOBO +U30 +Weather +,2013-03-04 04:15:00,
2013-03-03 23:30:00,30.1,27.7,-100.00,NW,324,5.4,10.7,90,0.00,,,-99.99,HOBO +U30 +Weather +,2013-03-04 04:30:00,
2013-03-03 23:45:00,30.2,27.8,-100.00,NW,320,4.9,10.3,90,0.00,,,-99.99,HOBO +U30 +Weather +,2013-03-04 04:45:00,